When you browse on this site, cookies collect data to enhance your experience and personalize the content and advertising you see.
Visit our Privacy Policy to learn more. By continuing to use the site, you agree to this use of cookies and data.
  • In Österreich
  • Länderverzeichnis
  • Für 7 Tage
  • Wassertemperatur
  • Wetterkarte
  • News
  • Widgets
  • user-avatar
    Anmelden

    Stündliche Wetter Dubovka

    Heute, 15 September, Sonntag

    Zeit Temperatur Niederschläge Wind Luftdruck Luftfeuchtigkeit
    00:00 +9°C° 0 mm 2 m/S 757 mmHg 87%
    01:00 +9°C° 0 mm 2 m/S 757 mmHg 89%
    02:00 +8°C° 0 mm 2 m/S 757 mmHg 91%
    03:00 +8°C° 0 mm 2 m/S 757 mmHg 91%
    04:00 +8°C° 0 mm 2 m/S 757 mmHg 91%
    05:00 +8°C° 0 mm 2 m/S 757 mmHg 91%
    06:00 +9°C° 0 mm 3 m/S 757 mmHg 86%
    07:00 +10°C° 0 mm 3 m/S 756 mmHg 81%
    08:00 +11°C° 0 mm 3 m/S 756 mmHg 76%
    09:00 +13°C° 0 mm 4 m/S 755 mmHg 70%
    10:00 +14°C° 0 mm 5 m/S 755 mmHg 64%
    11:00 +16°C° 0 mm 6 m/S 754 mmHg 58%
    12:00 +16°C° 0 mm 6 m/S 754 mmHg 56%
    13:00 +16°C° 0 mm 6 m/S 753 mmHg 54%
    14:00 +17°C° 0 mm 6 m/S 753 mmHg 52%
    15:00 +17°C° 0 mm 6 m/S 752 mmHg 53%
    16:00 +16°C° 0 mm 5 m/S 751 mmHg 54%
    17:00 +16°C° 0 mm 5 m/S 750 mmHg 56%
    18:00 +16°C° 0 mm 5 m/S 749 mmHg 56%
    19:00 +15°C° 0 mm 6 m/S 749 mmHg 57%
    20:00 +14°C° 0 mm 6 m/S 749 mmHg 57%
    21:00 +14°C° 0 mm 6 m/S 748 mmHg 58%
    22:00 +14°C° 0 mm 6 m/S 747 mmHg 59%
    23:00 +14°C° 0 mm 5 m/S 747 mmHg 60%

    Morgen, 16 September, Montag

    Zeit Temperatur Niederschläge Wind Luftdruck Luftfeuchtigkeit
    00:00 +14°C° 0 mm 5 m/S 747 mmHg 61%
    01:00 +14°C° 0 mm 5 m/S 746 mmHg 63%
    02:00 +15°C° 0 mm 5 m/S 746 mmHg 65%
    03:00 +15°C° 0 mm 5 m/S 746 mmHg 63%
    04:00 +15°C° 0 mm 5 m/S 746 mmHg 61%
    05:00 +15°C° 0 mm 5 m/S 746 mmHg 59%
    06:00 +15°C° 0 mm 6 m/S 746 mmHg 61%
    07:00 +15°C° 0 mm 6 m/S 746 mmHg 62%
    08:00 +15°C° 0 mm 6 m/S 746 mmHg 64%
    09:00 +16°C° 0 mm 6 m/S 746 mmHg 60%
    10:00 +16°C° 0 mm 7 m/S 746 mmHg 56%
    11:00 +17°C° 0 mm 7 m/S 746 mmHg 53%
    12:00 +17°C° 0 mm 7 m/S 746 mmHg 52%
    13:00 +17°C° 0 mm 7 m/S 746 mmHg 52%
    14:00 +17°C° 0 mm 7 m/S 746 mmHg 51%
    15:00 +16°C° 0 mm 7 m/S 746 mmHg 54%
    16:00 +15°C° 0 mm 6 m/S 746 mmHg 57%
    17:00 +14°C° 0 mm 6 m/S 746 mmHg 60%
    18:00 +13°C° 0 mm 5 m/S 746 mmHg 63%
    19:00 +12°C° 0 mm 5 m/S 745 mmHg 66%
    20:00 +10°C° 0 mm 4 m/S 745 mmHg 69%
    21:00 +10°C° 0 mm 4 m/S 745 mmHg 70%
    22:00 +10°C° 0 mm 4 m/S 745 mmHg 71%
    23:00 +9°C° 0 mm 3 m/S 745 mmHg 72%

    übermorgen, 17 September, Dienstag

    Zeit Temperatur Niederschläge Wind Luftdruck Luftfeuchtigkeit
    00:00 +9°C° 0 mm 3 m/S 745 mmHg 76%
    01:00 +8°C° 0 mm 3 m/S 744 mmHg 79%
    02:00 +7°C° 0 mm 3 m/S 744 mmHg 83%
    03:00 +7°C° 0 mm 3 m/S 744 mmHg 85%
    04:00 +6°C° 0 mm 4 m/S 744 mmHg 86%
    05:00 +5°C° 0 mm 4 m/S 744 mmHg 88%
    06:00 +6°C° 0 mm 4 m/S 744 mmHg 83%
    07:00 +7°C° 0 mm 5 m/S 743 mmHg 78%
    08:00 +8°C° 0 mm 6 m/S 743 mmHg 73%
    09:00 +10°C° 0 mm 6 m/S 743 mmHg 67%
    10:00 +11°C° 0 mm 6 m/S 743 mmHg 61%
    11:00 +14°C° 0 mm 7 m/S 743 mmHg 55%
    12:00 +14°C° 0.1 mm 7 m/S 743 mmHg 54%
    13:00 +14°C° 0.1 mm 7 m/S 742 mmHg 53%
    14:00 +15°C° 0.1 mm 7 m/S 742 mmHg 52%
    15:00 +14°C° 0.2 mm 7 m/S 742 mmHg 56%
    16:00 +13°C° 0.2 mm 6 m/S 741 mmHg 59%
    17:00 +13°C° 0.2 mm 6 m/S 741 mmHg 63%
    18:00 +12°C° 0.2 mm 5 m/S 741 mmHg 69%
    19:00 +9°C° 0.2 mm 5 m/S 741 mmHg 75%
    20:00 +8°C° 0.2 mm 4 m/S 741 mmHg 80%
    21:00 +8°C° 0.4 mm 5 m/S 741 mmHg 83%
    22:00 +7°C° 0.4 mm 5 m/S 740 mmHg 85%
    23:00 +6°C° 0.4 mm 5 m/S 740 mmHg 88%

    18 September, Mittwoch

    Zeit Temperatur Niederschläge Wind Luftdruck Luftfeuchtigkeit
    00:00 +6°C° 0 mm 5 m/S 740 mmHg 88%
    01:00 +5°C° 0 mm 5 m/S 740 mmHg 88%
    02:00 +4°C° 0 mm 6 m/S 740 mmHg 87%
    03:00 +4°C° 0 mm 6 m/S 740 mmHg 87%
    04:00 +4°C° 0 mm 7 m/S 740 mmHg 86%
    05:00 +4°C° 0 mm 7 m/S 740 mmHg 86%
    06:00 +4°C° 0 mm 7 m/S 741 mmHg 84%
    07:00 +5°C° 0 mm 7 m/S 741 mmHg 83%
    08:00 +5°C° 0 mm 8 m/S 741 mmHg 81%
    09:00 +6°C° 0 mm 7 m/S 742 mmHg 77%
    10:00 +8°C° 0 mm 7 m/S 743 mmHg 73%
    11:00 +9°C° 0 mm 6 m/S 743 mmHg 68%
    12:00 +9°C° 0.2 mm 7 m/S 744 mmHg 69%
    13:00 +10°C° 0.2 mm 7 m/S 744 mmHg 69%
    14:00 +11°C° 0.2 mm 8 m/S 744 mmHg 69%
    15:00 +10°C° 0.3 mm 7 m/S 744 mmHg 74%
    16:00 +9°C° 0.3 mm 7 m/S 744 mmHg 78%
    17:00 +9°C° 0.3 mm 6 m/S 745 mmHg 82%
    18:00 +8°C° 0 mm 6 m/S 745 mmHg 84%
    19:00 +8°C° 0 mm 5 m/S 746 mmHg 85%
    20:00 +8°C° 0 mm 5 m/S 746 mmHg 87%
    21:00 +7°C° 0 mm 5 m/S 747 mmHg 89%
    22:00 +7°C° 0 mm 5 m/S 747 mmHg 91%
    23:00 +6°C° 0 mm 5 m/S 747 mmHg 94%

    19 September, Donnerstag

    Zeit Temperatur Niederschläge Wind Luftdruck Luftfeuchtigkeit
    00:00 +6°C° 0 mm 4 m/S 748 mmHg 95%
    01:00 +6°C° 0 mm 4 m/S 748 mmHg 95%
    02:00 +5°C° 0 mm 4 m/S 748 mmHg 96%
    03:00 +5°C° 0 mm 4 m/S 749 mmHg 96%
    04:00 +5°C° 0 mm 4 m/S 749 mmHg 97%
    05:00 +5°C° 0 mm 4 m/S 749 mmHg 97%
    06:00 +5°C° 0 mm 4 m/S 749 mmHg 93%
    07:00 +6°C° 0 mm 4 m/S 749 mmHg 90%
    08:00 +6°C° 0 mm 4 m/S 750 mmHg 87%
    09:00 +7°C° 0.1 mm 4 m/S 750 mmHg 81%
    10:00 +8°C° 0.1 mm 4 m/S 750 mmHg 76%
    11:00 +11°C° 0.1 mm 4 m/S 751 mmHg 71%
    12:00 +11°C° 0.3 mm 4 m/S 750 mmHg 68%
    13:00 +12°C° 0.3 mm 4 m/S 750 mmHg 64%
    14:00 +12°C° 0.3 mm 4 m/S 750 mmHg 61%
    15:00 +12°C° 0.2 mm 4 m/S 750 mmHg 63%
    16:00 +12°C° 0.2 mm 4 m/S 750 mmHg 65%
    17:00 +11°C° 0.2 mm 4 m/S 750 mmHg 67%
    18:00 +10°C° 0 mm 3 m/S 750 mmHg 72%
    19:00 +8°C° 0 mm 3 m/S 750 mmHg 78%
    20:00 +7°C° 0 mm 3 m/S 750 mmHg 83%
    21:00 +5°C° 0 mm 3 m/S 750 mmHg 85%
    22:00 +5°C° 0 mm 3 m/S 750 mmHg 87%
    23:00 +4°C° 0 mm 3 m/S 750 mmHg 89%

    20 September, Freitag

    Zeit Temperatur Niederschläge Wind Luftdruck Luftfeuchtigkeit
    00:00 +4°C° 0 mm 3 m/S 750 mmHg 89%
    01:00 +3°C° 0 mm 3 m/S 750 mmHg 89%
    02:00 +3°C° 0 mm 3 m/S 750 mmHg 90%
    03:00 +4°C° 0.2 mm 4 m/S 750 mmHg 90%
    04:00 +4°C° 0.2 mm 4 m/S 750 mmHg 90%
    05:00 +5°C° 0.2 mm 4 m/S 750 mmHg 90%
    06:00 +5°C° 0.1 mm 4 m/S 751 mmHg 89%
    07:00 +5°C° 0.1 mm 5 m/S 751 mmHg 88%
    08:00 +5°C° 0.1 mm 5 m/S 751 mmHg 87%
    09:00 +5°C° 0.1 mm 6 m/S 752 mmHg 83%
    10:00 +5°C° 0.1 mm 6 m/S 753 mmHg 80%
    11:00 +5°C° 0.1 mm 6 m/S 753 mmHg 76%
    12:00 +7°C° 0.1 mm 6 m/S 754 mmHg 70%
    13:00 +8°C° 0.1 mm 6 m/S 754 mmHg 63%
    14:00 +9°C° 0.1 mm 6 m/S 754 mmHg 57%
    15:00 +9°C° 0.2 mm 5 m/S 754 mmHg 58%
    16:00 +10°C° 0.2 mm 4 m/S 754 mmHg 58%
    17:00 +10°C° 0.2 mm 3 m/S 754 mmHg 59%
    18:00 +8°C° 0 mm 3 m/S 755 mmHg 63%
    19:00 +6°C° 0 mm 2 m/S 755 mmHg 67%
    20:00 +5°C° 0 mm 2 m/S 756 mmHg 71%
    21:00 +4°C° 0 mm 2 m/S 756 mmHg 73%
    22:00 +4°C° 0 mm 2 m/S 756 mmHg 76%
    23:00 +4°C° 0 mm 2 m/S 756 mmHg 79%
    Mehr zeigen